Regional Weather Roundup
Issued by NWS Newport/Morehead, NC

Current Version | Previous Version | Graphics & Text | Print | Product List | Glossary Off
Versions: 1 2 3 4 5 6 7 8 9 10 11 12 13 14 15 16 17 18 19 20 21 22 23 24 25 26 27 28 29 30 31 32 33 34 35 36 37 38 39 40 41 42 43 44 45 46 47 48 49 50

000
ASUS42 KMHX 171313
RWRMHX
WEATHER ROUNDUP FOR EASTERN NORTH CAROLINA
NATIONAL WEATHER SERVICE NEWPORT/MOREHEAD CITY NC
800 AM EST FRI NOV 17 2017

NOTE: "FAIR" INDICATES FEW OR NO CLOUDS BELOW 12,000 FEET
WITH NO SIGNIFICANT WEATHER AND/OR OBSTRUCTIONS TO VISIBILITY

NCZ015>017-031-032-045>047-102-103-171400-
NORTH COAST

CITY           SKY/WX    TMP DP  RH WIND       PRES   REMARKS
EDENTON        SUNNY     40  36  83 CALM      30.23R
ELIZABETH CITY SUNNY     41  36  82 NW7       30.22R
KITTY HAWK     SUNNY     45  34  66 NW7       30.17R
MANTEO         SUNNY     46  36  69 N10       30.20R

$$

NCZ045>047-081-094-103-104-171400-
CENTRAL COAST

CITY           SKY/WX    TMP DP  RH WIND       PRES   REMARKS
FRISCO         SUNNY     50  42  74 N9        30.18R

$$

NCZ095-097-098-100-101-171400-
SOUTHERN COAST

CITY           SKY/WX    TMP DP  RH WIND       PRES   REMARKS
BEAUFORT       SUNNY     45  38  76 N9        30.20R
CEDAR ISLAND   NOT AVBL
JACKSONVILLE   SUNNY     44  36  73 N8        30.22R
PINEY ISLAND   NOT AVBL
WILMINGTON     SUNNY     44  35  70 NE16      30.22R


$$

NCZ011>013-027>030-043-044-078>080-089-090>093-098-171400-
COASTAL PLAIN

CITY           SKY/WX    TMP DP  RH WIND       PRES   REMARKS
AHOSKIE        SUNNY     35  31  85 N3        30.23R
CLINTON        SUNNY     37  36  95 CALM      30.25R
ELIZABETHTOWN  NOT AVBL
GOLDSBORO      SUNNY     42  33  71 N5        30.21R
GREENVILLE     SUNNY     36  34  93 CALM      30.24R
HAVELOCK       NOT AVBL
KENANSVILLE    SUNNY     36  34  93 CALM      30.25R
KINSTON        SUNNY     39  36  87 CALM      30.23R
NEW BERN       SUNNY     42  36  79 N6        30.23R
RICHLANDS      SUNNY     41  34  76 N7        30.24R
ROCKY MOUNT    SUNNY     36  35  96 CALM      30.24R
WASHINGTON     MOSUNNY   38  34  85 CALM      30.23R
WHITEVILLE     SUNNY     43  34  68 NE5       30.22R

$$

AMZ130-135-150-152-154-156-158-170-250-252-270-ANZ085-086-088-633-658-670-171400-
MARINE OBSERVATIONS

STATION/POSITION TIME  TEMP    WIND        PRES    WAVE   SWELL
                       AIR SEA DIR/SP/G            HT/PER HT/PER
                 (UTC) (F)     (DEG/KT/KT) (MB)    (FT/S) (FT/S)
CHESAPEAKE LIGHT NOT AVBL
64 E VA BEACH    1250   51 61  330/ 19/ 25 1020.9    8/ 7   3/12
DUCK             1236   47 57  330/ 18/ 21 1021.5
2 E DUCK         1300      60                N/A     6/ 6   2/13
OREGON INLET     1236   47 57  330/ 11/ 17 1021.8
13E OREGON INLT  1248      62                N/A     7/ 7   7/ 7
HATTERAS CG      1236   48 59  350/ 18/ 21 1021.5
DIAMOND BUOY     1250   54 65  360/ 19/ 25 1021.3    6/ 6   3/11
CAPE LOOKOUT     1300   49     360/ 11/ 14 1022.8
BEAUFORT LAB     1236   47 59   10/ 11/ 14 1022.4
30 SE NEW RVR IN 1208   55 71   50/ 17/ 23 1021.3
30 SE NEW RVR IN 1300      71                N/A     6/ 5   2/11
27 SE WRIGHTSVLE 1208   55 68   40/ 23/ 31 1020.8
5 SE WRIGHTSVLE  1208   51 64   30/ 19/ 25 1020.7
225 S CAPE HAT   1250   69 77   10/ 16/ 19 1017.3    7/11   5/11
41 SE CHARLESTON 1250   65 75   40/ 17/ 23 1020.4    4/ 5   2/ 9

$$




USA.gov is the U.S. government's official web portal to all federal, state and local government web resources and services.